Regional Weather Roundup
Issued by NWS Little Rock, AR

Home | Current Version | Previous Version | Graphics & Text | Print | Product List | Glossary On
Versions: 1 2 3 4 5 6 7 8 9 10 11 12 13 14 15 16 17 18 19 20 21 22 23 24 25 26 27 28 29 30 31 32 33 34 35 36 37 38 39 40 41 42 43 44 45 46 47 48 49 50
000
ASUS44 KLZK 192205
RWRLZK

WEATHER ROUNDUP FOR ARKANSAS
NATIONAL WEATHER SERVICE LITTLE ROCK AR
500 PM CDT FRI SEP 19 2014

NOTE: "FAIR" INDICATES FEW OR NO CLOUDS BELOW 12,000 FEET WITH NO
SIGNIFICANT WEATHER AND/OR OBSTRUCTIONS TO VISIBILITY.

ARZ001-003-010-029-192300-
NORTHWEST ARKANSAS

CITY           SKY/WX    TMP DP  RH WIND       PRES   REMARKS
FAYETTEVILLE   SUNNY     81  68  64 S10       29.99F
FORT SMITH     SUNNY     83  68  60 E7        29.95F HX  86
HARRISON       SUNNY     79  66  64 CALM      30.02F
BENTONVILLE    CLOUDY    84  66  54 SE5       30.01F HX  86
ROGERS         SUNNY     81  65  58 SE8       30.01F
SILOAM SPGS    MOSUNNY   82  66  57 SW7       30.00F HX  85
HIGHFILL       MOSUNNY   80  66  62 S6        29.99F
SPRINGDALE     PTSUNNY   82  66  57 SE5       30.01F HX  85
$$

ARZ004-005-016-192300-
NORTH CENTRAL ARKANSAS

CITY           SKY/WX    TMP DP  RH WIND       PRES   REMARKS
BATESVILLE     SUNNY     82  64  54 E3        30.00S
FLIPPIN        MOSUNNY   81  63  54 SE7       30.00F
MTN HOME       MOSUNNY   80  64  58 CALM      30.00F
$$

ARZ040-041-192300-
WEST CENTRAL ARKANSAS

CITY           SKY/WX    TMP DP  RH WIND       PRES   REMARKS
MENA           PTSUNNY   82  72  69 CALM      29.98F HX  87
MOUNT IDA      MOSUNNY   84  69  60 E6        29.97S HX  88
$$

ARZ009-017-025-026-028-192300-
NORTHEAST ARKANSAS

CITY           SKY/WX    TMP DP  RH WIND       PRES   REMARKS
CORNING        LGT RAIN  81  64  57 SE5       30.01S
JONESBORO      MOSUNNY   84  65  52 CALM      29.99F HX  86
NEWPORT        MOSUNNY   84  67  56 CALM      30.00S HX  86
WALNUT RIDGE   MOSUNNY   81  63  54 SE6       29.99F
BLYTHEVILLE    SUNNY     84  67  56 CALM      30.00S HX  86
$$

ARZ022-023-033-042-044-192300-
CENTRAL ARKANSAS

CITY           SKY/WX    TMP DP  RH WIND       PRES   REMARKS
LITTLE ROCK    PTSUNNY   86  66  51 NE7       29.97F HX  88
N LITTLE ROCK  PTSUNNY   84  70  61 SE6       29.97F HX  88
JACKSONVILLE   MOSUNNY   86  69  56 E6        29.97F HX  89
SEARCY         MOSUNNY   85  68  56 VRB3      29.99F HX  88
HOT SPRINGS    MOSUNNY   85  68  56 E7        29.98S HX  88
RUSSELLVILLE   SUNNY     84  68  58 CALM      29.98F HX  87
CLINTON        FAIR      82  70  65 CALM      29.99F HX  86
$$

ARZ036-192300-
EAST ARKANSAS

CITY           SKY/WX    TMP DP  RH WIND       PRES   REMARKS
WEST MEMPHIS   CLOUDY    85  68  56 E5        29.97F HX  88
$$

ARZ050-053-066-070-073-192300-
SOUTHWEST ARKANSAS

CITY           SKY/WX    TMP DP  RH WIND       PRES   REMARKS
ARKADELPHIA    MOCLDY    83  73  71 S9        29.98S HX  89
CAMDEN         MOSUNNY   84  68  58 S3        29.97F HX  87
TEXARKANA      MOSUNNY   82  72  71 E5        29.95F HX  87
EL DORADO      MOSUNNY   83  70  64 E3        29.96F HX  87
DE QUEEN       SUNNY     83  71  67 S6        29.93F HX  87
$$

ARZ056-057-069-192300-
SOUTHEAST ARKANSAS

CITY           SKY/WX    TMP DP  RH WIND       PRES   REMARKS
PINE BLUFF     MOSUNNY   86  68  54 VRB5      29.97F HX  89
STUTTGART      SUNNY     84  66  54 CALM      29.98F HX  86
MONTICELLO     SUNNY     87  67  51 CALM      29.96F HX  90

$$




USA.gov is the U.S. government's official web portal to all federal, state and local government web resources and services.